DECAYED

STARLINK-1238, 45233 (Decayed)

Orbit data source: Space-Track

STARLINK-1238, 45233 was a payload satellite owned by SpaceX/Seattle (US) in LEO that was launched on Mon, 17 Feb 2020 UTC via an FALCON 9 launch vehicle from the Air Force Eastern Test Range (AFETR). Payload-class satellites include a variety of spacecraft equipped with specific instruments for various scientific and technological missions. These include communications satellites like Starlink; space stations such as the ISS; scientific satellites like the Hubble; Earth observation satellites from companies like Planet Labs, Umbra, and HawkEye 360; GPS; miniature CubeSats for education and research; and military/defense satellites.

Not visible in the next 10 days
Identifier
45233, 2020-012BH
Orbit
Decayed
Country
Flag of USUS
Related business
Manufacturer
SpaceX/Seattle
Mission
Decayed Commercial Communications
Bus & Motor
STARLINK, Unknown motor
Mass
260 kg wet, ~248 kg dry
Launch date (UTC)
2020-02-17 (7 years ago)
Launch vehicle
FALCON 9
Launch site
Air Force Eastern Test Range (AFETR)
Object type
Payload
Rocket body
Debris
Shape & HBR
Box + 1 Pan, 10.1 m
Radar Cross Section
13.562 m², Large (>1 m²)

Expand to show TLE details & history
Last TLE update: 11 months ago

TLE from 11 months ago
0 STARLINK-1238
1 45233U 20012BH  25278.20117288  .12839881  12490-4  37121-3 0  9992
2 45233  53.0242 301.1109 0003439 250.7840 109.2836 16.45270322312552
Epoch: 2025-10-05T04:49Z
TLE epoch observation values (Epoch: 2025-10-05T04:49:41.336Z)
Latitude
-0.00008°
Longitude
-145.43357°
Altitude
153.491 km
Speed
7.815 km/s
True Right ascension
20h 04m 26s
True Declination
0° 00' 00"
Sunlit
Object was in full shadow at epoch
Visualization orbit readout
Latitude
Unknown
Longitude
Unknown
Altitude
Unknown
Speed
Unknown
Apparent Right ascension
Unknown
Apparent Declination
Unknown
Sunlit
N/A
Visualization observer readout
Local Sidereal Time
00:54:20
Azimuth
Unknown
Elevation
Unknown
Doppler factor
Unknown
Orbital elements
Apogee altitude
154.358 km
Perigee altitude
149.866 km
Semi-major axis
6,530.249 km
Eccentricity
0.00034
Inclination
53.0242°
RAAN
301.1109°
Arg. of periapsis
250.784°
True anomaly
109.32079°
Mean anomaly
109.2836°
Eccentric anomaly
109.3022°
Mean motion
4.1129 °/min
Orbital period
87.53 mins
BSTAR
0.00037121
Loading maneuver chart data...
Computing Atmospheric mass density...

Documentation

Showing up to 5 results
|